KD8OZS Weather Reports


time (UTC)temp
C
wind
direction
speed
KPH
gust
KPH
rain 1hr
cm
rain 24hr
cm
rain mn
cm
humidity
%
barometer
mb
20260510192900 16 220 4.8 8.0 0.00 0.18 0.18 43 1010.4
20260510192355 16 229 0.0 0.0 0.00 0.18 0.18 42 1010.2
20260510191851 16 233 4.8 4.8 0.00 0.18 0.18 43 1010.2
20260510191347 16 286 6.4 9.7 0.00 0.18 0.18 42 1010.2
20260510190845 16 197 3.2 3.2 0.00 0.18 0.18 48 1010.3
20260510190342 16 234 1.6 3.2 0.00 0.18 0.18 45 1010.2
20260510185838 16 225 1.6 3.2 0.00 0.18 0.18 48 1010.4
20260510185336 16 239 4.8 4.8 0.00 0.18 0.18 44 1010.1
20260510184833 16 333 6.4 8.0 0.00 0.18 0.18 43 1010.2
20260510184330 16 245 4.8 4.8 0.00 0.18 0.18 47 1010.4
20260510183830 15 228 0.0 1.6 0.00 0.18 0.18 46 1010.3
20260510183326 16 299 6.4 8.0 0.00 0.18 0.18 48 1010.3
20260510182822 15 222 0.0 0.0 0.00 0.18 0.18 50 1010.2
20260510182319 15 317 4.8 8.0 0.00 0.18 0.18 49 1010.2
20260510181814 15 278 1.6 3.2 0.00 0.18 0.18 47 1010.1
20260510181312 16 198 0.0 0.0 0.00 0.18 0.18 50 1009.8
20260510180808 15 222 1.6 1.6 0.00 0.18 0.18 51 1010.0
20260510180305 15 248 1.6 3.2 0.00 0.18 0.18 49 1009.8
20260510175802 15 324 6.4 8.0 0.00 0.18 0.18 50 1009.5
20260510175257 15 263 3.2 3.2 0.00 0.18 0.18 46 1009.8
20260510174754 16 321 6.4 8.0 0.00 0.18 0.18 52 1009.7
20260510174252 15 224 3.2 4.8 0.00 0.18 0.18 51 1010.1
20260510173748 15 352 3.2 3.2 0.00 0.18 0.18 51 1010.0
20260510173243 15 307 8.0 9.7 0.00 0.18 0.18 53 1009.8
20260510172739 14 237 1.6 3.2 0.00 0.18 0.18 52 1010.1
20260510172235 15 20 6.4 8.0 0.00 0.18 0.18 53 1010.1
20260510171733 15 301 3.2 4.8 0.00 0.18 0.18 56 1010.2
20260510171230 14 222 3.2 3.2 0.00 0.18 0.18 55 1010.2
20260510170727 14 102 8.0 9.7 0.00 0.18 0.18 56 1010.3
20260510170223 14 309 11.3 12.9 0.00 0.18 0.18 57 1010.3
20260510165718 15 325 8.0 9.7 0.00 0.18 0.18 53 1010.4
20260510165215 13 257 3.2 3.2 0.00 0.18 0.18 57 1010.5
20260510164712 13 35 4.8 4.8 0.00 0.18 0.18 55 1010.2
20260510164210 13 2 9.7 11.3 0.00 0.18 0.18 59 1010.4
20260510163705 13 52 4.8 4.8 0.00 0.18 0.18 59 1010.2
20260510163201 13 47 8.0 11.3 0.00 0.18 0.18 57 1010.3
20260510162700 13 50 11.3 11.3 0.00 0.18 0.18 57 1010.2
20260510162157 13 37 9.7 12.9 0.00 0.18 0.18 57 1010.1
20260510161653 13 326 4.8 4.8 0.00 0.18 0.18 57 1010.2
20260510161150 13 251 4.8 4.8 0.00 0.18 0.18 60 1010.2
20260510160647 13 326 6.4 8.0 0.00 0.18 0.18 59 1010.2
20260510160142 13 291 4.8 4.8 0.00 0.18 0.18 60 1010.2
20260510155638 13 349 4.8 9.7 0.00 0.18 0.18 61 1010.1
20260510155134 12 25 6.4 8.0 0.00 0.18 0.18 58 1010.1
20260510154630 13 268 4.8 8.0 0.00 0.18 0.18 62 1009.7
20260510154126 13 14 4.8 4.8 0.00 0.18 0.18 64 1010.1
20260510153621 13 19 8.0 11.3 0.00 0.18 0.18 66 1009.9
20260510153118 13 57 8.0 9.7 0.00 0.18 0.18 64 1009.8
20260510152615 13 273 3.2 3.2 0.00 0.18 0.18 64 1009.7
20260510152111 12 48 9.7 12.9 0.00 0.18 0.18 66 1009.5
20260510151607 12 12 4.8 4.8 0.00 0.18 0.18 67 1009.6
20260510151106 12 338 4.8 4.8 0.00 0.18 0.18 67 1009.6
20260510150600 12 4 6.4 9.7 0.00 0.18 0.18 70 1009.5
20260510150056 12 15 11.3 12.9 0.00 0.18 0.18 68 1009.5
20260510145553 12 350 4.8 8.0 0.00 0.18 0.18 68 1009.2
20260510145049 11 2 8.0 9.7 0.00 0.18 0.18 72 1009.2
20260510144546 11 332 3.2 3.2 0.00 0.18 0.18 71 1009.0
20260510144042 11 11 9.7 11.3 0.00 0.18 0.18 73 1009.1
20260510143537 11 338 6.4 8.0 0.00 0.18 0.18 74 1009.0
20260510143034 11 358 11.3 14.5 0.00 0.18 0.18 75 1008.6
20260510142531 11 67 8.0 9.7 0.00 0.18 0.18 75 1009.0
20260510142027 11 10 6.4 9.7 0.00 0.18 0.18 77 1008.8
20260510141524 11 323 6.4 8.0 0.00 0.18 0.18 78 1008.8
20260510141022 11 358 11.3 14.5 0.00 0.18 0.18 78 1008.5
20260510140517 11 353 9.7 14.5 0.00 0.18 0.18 79 1008.5
20260510140012 11 0 8.0 11.3 0.00 0.18 0.18 80 1008.7
20260510135508 10 341 6.4 9.7 0.00 0.18 0.18 80 1008.7
20260510135004 10 291 4.8 4.8 0.00 0.18 0.18 82 1008.8
20260510134501 10 316 6.4 8.0 0.00 0.18 0.18 82 1008.7
20260510133958 10 343 9.7 11.3 0.00 0.18 0.18 82 1008.7
20260510133454 10 341 3.2 3.2 0.00 0.18 0.18 83 1008.7
20260510132950 10 316 4.8 4.8 0.00 0.18 0.18 84 1008.4
20260510132447 10 244 1.6 1.6 0.00 0.18 0.18 85 1008.4
20260510131944 10 259 1.6 1.6 0.00 0.18 0.18 86 1008.4
20260510131442 9 237 0.0 0.0 0.00 0.18 0.18 87 1008.4
20260510130939 9 234 1.6 1.6 0.00 0.18 0.18 90 1008.4
20260510130435 8 250 1.6 1.6 0.00 0.18 0.18 92 1008.4
20260510125932 8 240 0.0 0.0 0.00 0.18 0.18 94 1008.3
20260510125428 8 233 0.0 0.0 0.00 0.18 0.18 95 1008.3
20260510124925 8 232 0.0 0.0 0.00 0.18 0.18 95 1008.1
20260510124422 8 232 0.0 0.0 0.00 0.18 0.18 95 1008.0
20260510123918 8 232 0.0 0.0 0.00 0.18 0.18 95 1007.6
20260510123414 8 232 0.0 0.0 0.00 0.18 0.18 95 1007.4
20260510122910 8 232 0.0 0.0 0.00 0.18 0.18 95 1007.7
20260510122405 8 232 0.0 0.0 0.00 0.18 0.18 95 1007.4
20260510121902 8 232 0.0 0.0 0.00 0.18 0.18 95 1007.3
20260510121359 8 232 0.0 0.0 0.00 0.18 0.18 95 1007.2
20260510120856 8 232 0.0 0.0 0.00 0.18 0.18 95 1007.3
20260510120354 8 232 0.0 0.0 0.00 0.18 0.18 94 1007.0
20260510115849 8 232 0.0 0.0 0.00 0.18 0.18 94 1007.1
20260510115346 8 232 0.0 0.0 0.13 0.18 0.18 94 1006.8
20260510114842 8 232 0.0 0.0 0.13 0.18 0.18 93 1006.7
20260510114339 8 225 0.0 0.0 0.00 0.15 0.15 93 1007.0
20260510113839 8 237 0.0 0.0 0.00 0.15 0.15 93 1006.8
20260510113336 7 236 0.0 0.0 0.00 0.15 0.15 94 1006.4
20260510112833 7 236 0.0 0.0 0.00 0.15 0.15 95 1005.9
20260510112330 7 231 0.0 0.0 0.00 0.15 0.15 95 1006.0
20260510111826 7 231 0.0 0.0 0.00 0.15 0.15 95 1006.4
20260510111323 7 231 0.0 0.0 0.00 0.15 0.15 95 1006.1
20260510110823 7 231 0.0 0.0 0.00 0.15 0.15 95 1006.1
20260510110320 7 231 0.0 0.0 0.00 0.15 0.15 95 1006.0
20260510105816 7 231 0.0 0.0 0.00 0.15 0.15 96 1005.6
20260510105310 7 231 0.0 0.0 0.00 0.15 0.15 96 1005.3
20260510104807 7 231 0.0 0.0 0.00 0.15 0.15 96 1005.7
20260510104305 7 231 0.0 0.0 0.00 0.15 0.15 96 1005.7
20260510103801 7 231 0.0 0.0 0.00 0.15 0.15 96 1005.4
20260510103257 7 231 0.0 0.0 0.00 0.15 0.15 96 1005.3
20260510102752 7 231 0.0 0.0 0.00 0.15 0.15 96 1005.2
20260510102248 7 231 0.0 0.0 0.00 0.15 0.15 97 1005.1
20260510101746 7 231 0.0 0.0 0.00 0.15 0.15 97 1004.8
20260510101244 7 231 0.0 0.0 0.00 0.15 0.15 97 1004.8
20260510100739 7 231 0.0 0.0 0.00 0.15 0.15 97 1004.9
20260510100238 7 231 0.0 0.0 0.00 0.15 0.15 97 1004.9
20260510095733 7 231 0.0 0.0 0.00 0.15 0.15 97 1004.7
20260510095228 7 231 0.0 0.0 0.00 0.15 0.15 97 1004.9
20260510094727 7 231 0.0 0.0 0.00 0.15 0.15 97 1004.6
20260510094223 7 231 0.0 0.0 0.00 0.15 0.15 97 1004.7
20260510093719 7 231 0.0 0.0 0.00 0.15 0.15 97 1004.6
20260510093217 7 231 0.0 0.0 0.00 0.15 0.15 97 1004.5
20260510092713 7 231 0.0 0.0 0.00 0.15 0.15 97 1004.3
20260510092208 7 231 0.0 1.6 0.00 0.15 0.15 97 1004.3
20260510091704 7 231 0.0 0.0 0.00 0.15 0.15 96 1004.2
20260510091201 7 231 0.0 0.0 0.00 0.15 0.15 96 1004.3
20260510090657 7 231 0.0 0.0 0.00 0.15 0.15 96 1003.9
20260510090154 7 231 0.0 0.0 0.00 0.15 0.15 96 1004.0
20260510085649 7 231 0.0 0.0 0.00 0.15 0.15 96 1004.0
20260510085144 8 231 0.0 0.0 0.00 0.15 0.15 95 1003.7
20260510084641 8 230 0.0 1.6 0.00 0.15 0.15 96 1003.7
20260510084138 8 233 0.0 0.0 0.00 0.15 0.15 96 1003.6
20260510083635 8 233 0.0 0.0 0.00 0.15 0.15 96 1003.6
20260510083132 8 222 0.0 0.0 0.00 0.15 0.15 96 1003.3
20260510082628 8 236 0.0 0.0 0.00 0.15 0.15 96 1003.3
20260510082124 8 234 0.0 0.0 0.00 0.15 0.15 97 1003.6
20260510081623 9 234 0.0 0.0 0.00 0.15 0.15 97 1003.3
20260510081119 8 240 1.6 3.2 0.00 0.15 0.15 98 1003.5
20260510080613 10 238 0.0 0.0 0.00 0.15 0.15 98 1003.2
20260510080111 10 234 0.0 0.0 0.00 0.15 0.15 98 1003.1
20260510075608 10 296 3.2 3.2 0.00 0.15 0.15 98 1003.2
20260510075105 10 238 1.6 1.6 0.00 0.15 0.15 98 1003.2
20260510074602 10 237 0.0 0.0 0.00 0.15 0.15 99 1002.9
20260510074057 10 235 0.0 0.0 0.00 0.15 0.15 98 1003.0
20260510073553 10 234 0.0 0.0 0.00 0.15 0.15 98 1002.8
20260510073051 10 232 0.0 1.6 0.00 0.15 0.15 99 1002.8
20260510072547 10 230 0.0 0.0 0.00 0.15 0.15 98 1002.7
20260510072043 10 244 1.6 1.6 0.00 0.15 0.15 98 1002.8
20260510071539 10 239 0.0 0.0 0.00 0.15 0.15 98 1002.6
20260510071038 10 239 0.0 0.0 0.00 0.15 0.15 98 1002.5
20260510070534 10 240 0.0 0.0 0.00 0.15 0.15 98 1002.5
20260510070031 10 238 0.0 0.0 0.00 0.15 0.15 98 1002.4
20260510065527 10 239 0.0 0.0 0.00 0.15 0.15 98 1002.6
20260510065023 10 238 0.0 0.0 0.00 0.15 0.15 98 1002.3
20260510064520 10 234 0.0 0.0 0.00 0.15 0.15 98 1002.4
20260510064017 10 234 0.0 0.0 0.00 0.15 0.15 98 1002.3
20260510063513 10 240 0.0 0.0 0.00 0.15 0.15 98 1002.4
20260510063011 10 241 0.0 0.0 0.00 0.15 0.15 98 1002.4
20260510062506 10 239 0.0 0.0 0.00 0.15 0.15 98 1002.1
20260510062001 11 228 1.6 1.6 0.00 0.15 0.15 98 1002.2
20260510061459 10 232 0.0 0.0 0.00 0.15 0.15 98 1002.1
20260510060955 10 233 0.0 0.0 0.00 0.15 0.15 98 1002.1
20260510060452 10 243 0.0 0.0 0.00 0.15 0.15 97 1002.0
20260510055948 11 233 0.0 0.0 0.00 0.15 0.15 97 1001.9
20260510055444 11 230 0.0 0.0 0.00 0.15 0.15 97 1001.8
20260510054943 11 230 0.0 1.6 0.00 0.15 0.15 97 1001.9
20260510054437 11 230 0.0 0.0 0.00 0.15 0.15 97 1001.6
20260510053932 11 230 0.0 0.0 0.00 0.15 0.15 97 1001.6
20260510053428 11 230 1.6 1.6 0.00 0.15 0.15 97 1001.5
20260510052925 11 230 0.0 0.0 0.00 0.15 0.15 96 1001.5
20260510052420 11 230 0.0 0.0 0.00 0.15 0.15 96 1001.4
20260510051917 12 230 0.0 0.0 0.00 0.15 0.15 96 1001.5
20260510051414 12 230 0.0 0.0 0.00 0.15 0.15 95 1001.4
20260510050910 12 230 0.0 0.0 0.00 0.15 0.15 95 1001.5
20260510050406 12 230 0.0 0.0 0.00 0.15 0.15 94 1001.3
20260510045904 12 235 0.0 0.0 0.00 0.15 0.15 94 1001.4
20260510045401 12 231 1.6 1.6 0.36 0.15 0.15 94 1001.3
20260510044858 12 230 0.0 1.6 0.30 0.13 0.13 94 1001.3
20260510044354 12 222 3.2 3.2 0.13 0.10 0.10 94 1001.7
20260510043851 12 231 1.6 3.2 0.00 0.08 0.08 95 1001.7
20260510043347 12 231 1.6 3.2 0.00 0.08 0.08 95 1001.8
20260510042845 12 239 0.0 0.0 0.00 0.08 0.08 96 1002.0
20260510042341 12 243 0.0 0.0 0.48 0.08 0.08 96 1001.9
20260510041837 12 228 3.2 3.2 0.48 0.08 0.08 96 1002.2
20260510041334 11 195 8.0 11.3 0.00 0.00 0.00 97 1002.0
20260510040832 11 236 0.0 0.0 0.00 0.00 0.00 97 1001.1
20260510040328 11 236 0.0 0.0 0.00 0.00 0.00 97 1001.2
20260510035824 11 236 0.0 0.0 0.00 0.46 0.46 96 1001.2
20260510035320 11 235 0.0 0.0 0.00 0.46 0.46 96 1001.1
20260510034816 11 235 0.0 0.0 0.00 0.46 0.46 96 1001.2
20260510034314 11 235 0.0 0.0 0.00 0.46 0.46 96 1001.3
20260510033810 11 235 0.0 0.0 0.00 0.46 0.46 96 1001.2
20260510033307 11 235 0.0 0.0 0.00 0.46 0.46 96 1001.3
20260510032803 12 236 0.0 0.0 0.00 0.46 0.46 96 1001.4
20260510032300 12 236 0.0 0.0 0.00 0.46 0.46 95 1001.3
20260510031756 12 236 0.0 0.0 0.00 0.46 0.46 95 1001.3
20260510031251 12 236 0.0 0.0 0.00 0.46 0.46 95 1001.1
20260510030745 12 236 0.0 0.0 0.00 0.46 0.46 95 1001.3
20260510030242 12 235 0.0 0.0 0.00 0.46 0.46 95 1001.3
20260510025740 12 235 0.0 0.0 0.00 0.46 0.46 94 1001.1
20260510025238 12 236 0.0 0.0 0.00 0.46 0.46 94 1001.3
20260510024734 12 233 0.0 0.0 0.00 0.46 0.46 94 1001.1
20260510024230 12 249 1.6 1.6 0.00 0.46 0.46 94 1001.3
20260510023726 12 255 1.6 1.6 0.00 0.46 0.46 94 1001.3
20260510023224 12 235 0.0 0.0 0.00 0.46 0.46 94 1000.7
20260510022720 12 235 0.0 0.0 0.00 0.46 0.46 94 1000.7
20260510022220 12 228 1.6 1.6 0.00 0.46 0.46 94 1001.1
20260510021715 12 237 0.0 0.0 0.00 0.46 0.46 94 1000.9
20260510021213 12 237 0.0 0.0 0.00 0.46 0.46 94 1000.4
20260510020708 13 237 0.0 0.0 0.00 0.46 0.46 93 1000.5
20260510020203 13 252 3.2 3.2 0.13 0.46 0.46 93 1000.5
20260510015659 12 232 0.0 0.0 0.00 0.43 0.43 93 1000.5
20260510015156 12 232 0.0 0.0 0.00 0.43 0.43 93 1000.2
20260510014656 12 232 0.0 0.0 0.00 0.43 0.43 93 1000.4
20260510014153 12 232 0.0 0.0 0.00 0.43 0.43 93 1000.4
20260510013648 12 232 0.0 0.0 0.00 0.43 0.43 92 1000.1
20260510013144 12 232 0.0 0.0 0.00 0.43 0.43 92 1000.4
20260510012644 12 232 0.0 0.0 0.00 0.43 0.43 92 1000.1
20260510012140 12 232 0.0 0.0 0.00 0.43 0.43 91 1000.2
20260510011635 12 232 0.0 0.0 0.00 0.43 0.43 91 1000.0
20260510011131 12 232 0.0 0.0 0.00 0.43 0.43 90 1000.0
20260510010627 13 232 0.0 0.0 0.00 0.43 0.43 89 1000.0
20260510010124 13 232 0.0 0.0 0.00 0.43 0.43 89 1000.1
20260510005619 13 232 0.0 0.0 0.00 0.43 0.43 88 1000.2
20260510005117 13 232 0.0 0.0 0.00 0.43 0.43 88 1000.1
20260510004615 13 232 0.0 0.0 0.00 0.43 0.43 88 1000.3
20260510004113 13 232 1.6 1.6 0.00 0.43 0.43 87 1000.1
20260510003610 13 231 0.0 0.0 0.00 0.43 0.43 87 999.8
20260510003106 14 236 1.6 1.6 0.00 0.43 0.43 86 999.8
20260510002600 15 230 3.2 3.2 0.00 0.43 0.43 85 999.6
20260510002057 15 256 3.2 3.2 0.00 0.43 0.43 82 999.9
20260510001555 15 272 4.8 8.0 0.00 0.43 0.43 81 999.5
20260510001054 16 234 3.2 4.8 0.00 0.43 0.43 78 999.6
20260510000548 17 210 3.2 3.2 0.00 0.43 0.43 74 999.8
20260510000046 19 251 3.2 3.2 0.00 0.43 0.43 61 998.7
20260509235542 19 207 1.6 1.6 0.00 0.43 0.43 61 998.5
20260509235038 19 243 1.6 1.6 0.00 0.43 0.43 61 998.6
20260509234534 19 94 1.6 1.6 0.00 0.43 0.43 62 998.3
20260509234033 19 218 4.8 8.0 0.00 0.43 0.43 60 998.3
20260509233530 19 232 3.2 3.2 0.00 0.43 0.43 60 998.3
20260509233027 20 254 1.6 3.2 0.00 0.43 0.43 59 998.2
20260509232524 20 237 1.6 3.2 0.00 0.43 0.43 59 998.3
20260509232020 20 236 0.0 1.6 0.00 0.43 0.43 58 998.2
20260509231517 20 235 3.2 3.2 0.00 0.43 0.43 58 998.2
20260509231015 20 210 4.8 8.0 0.00 0.43 0.43 57 998.1
20260509230511 20 216 6.4 9.7 0.00 0.43 0.43 57 998.1
20260509230008 20 222 8.0 12.9 0.00 0.43 0.43 59 998.1
20260509225503 20 223 3.2 3.2 0.00 0.43 0.43 58 998.0
20260509224959 20 98 8.0 12.9 0.00 0.43 0.43 57 998.1
20260509224455 20 334 1.6 3.2 0.00 0.43 0.43 61 997.9
20260509223952 20 240 0.0 0.0 0.00 0.43 0.43 59 998.2
20260509223449 20 236 3.2 4.8 0.00 0.43 0.43 58 998.1
20260509222946 20 216 3.2 3.2 0.00 0.43 0.43 58 998.0
20260509222442 20 223 4.8 8.0 0.00 0.43 0.43 58 998.0
20260509221938 20 198 6.4 9.7 0.00 0.43 0.43 60 998.0
20260509221434 20 215 1.6 3.2 0.00 0.43 0.43 59 998.0
20260509220930 20 179 1.6 3.2 0.00 0.43 0.43 60 998.1
20260509220426 20 242 3.2 8.0 0.00 0.43 0.43 61 998.1
20260509215923 20 227 8.0 8.0 0.00 0.43 0.43 60 998.0
20260509215418 21 215 3.2 4.8 0.00 0.43 0.43 59 997.9
20260509214916 21 232 3.2 3.2 0.00 0.43 0.43 60 998.0
20260509214413 21 233 4.8 8.0 0.00 0.43 0.43 59 998.0
20260509213910 21 180 3.2 4.8 0.00 0.43 0.43 58 998.1
20260509213405 21 200 4.8 8.0 0.00 0.43 0.43 58 998.1
20260509212903 21 188 6.4 12.9 0.00 0.43 0.43 57 998.2
20260509212400 21 220 4.8 4.8 0.00 0.43 0.43 56 998.3
20260509211856 21 194 3.2 3.2 0.00 0.43 0.43 54 998.1
20260509211352 22 235 1.6 1.6 0.00 0.43 0.43 56 998.1
20260509210849 21 247 0.0 1.6 0.00 0.43 0.43 56 998.3
20260509210346 21 216 4.8 4.8 0.00 0.43 0.43 53 998.3
20260509205846 22 213 1.6 1.6 0.00 0.43 0.43 55 998.4
20260509205341 22 239 1.6 1.6 0.00 0.43 0.43 54 998.6
20260509204838 21 225 3.2 4.8 0.00 0.43 0.43 56 998.5
20260509204334 21 126 1.6 3.2 0.00 0.43 0.43 56 998.8
20260509203830 21 227 4.8 4.8 0.00 0.43 0.43 56 998.5
20260509203327 21 216 3.2 3.2 0.00 0.43 0.43 55 998.7
20260509202823 21 230 4.8 8.0 0.00 0.43 0.43 56 999.0
20260509202320 21 228 6.4 9.7 0.00 0.43 0.43 55 999.0
20260509201819 21 202 9.7 14.5 0.00 0.43 0.43 56 998.8
20260509201316 21 206 4.8 8.0 0.00 0.43 0.43 56 999.1
20260509200812 21 202 4.8 4.8 0.00 0.43 0.43 58 999.2
20260509200308 21 207 3.2 4.8 0.00 0.43 0.43 58 999.0
20260509195804 20 227 8.0 12.9 0.00 0.43 0.43 58 999.2
20260509195300 21 204 8.0 11.3 0.00 0.43 0.43 57 999.0
20260509194759 20 214 3.2 3.2 0.00 0.43 0.43 59 999.1
20260509194256 20 248 11.3 12.9 0.00 0.43 0.43 58 999.2
20260509193753 21 215 3.2 4.8 0.00 0.43 0.43 58 999.5
20260509193247 20 207 4.8 4.8 0.00 0.43 0.43 59 999.3